#timestamp,LO_Frequency,Hit,StdDev 
1509080415.1,286046987.4,Y
1509080435.9,286046985.7,P
1509080455.7,286046980.6,P
1509080475.5,286046980.1,N
1509080495.4,286046977.9,Y
1509080515.2,286046990.3,P
1509080535.0,286046990.5,P
1509080535.9,286046990.5,P
1509080555.8,286046990.2,Y
1509080575.6,286047000.5,P
1509080595.5,286047000.9,N
1509080615.3,286047000.3,N
1509080635.1,286047000.6,N
1509080655.9,286046998.6,N
1509080675.7,286046998.9,N
1509080695.5,286046996.7,N
1509080715.4,286046997.7,N
1509080735.2,286046995.6,N
1509080755.0,286046993.9,N
1509080755.9,286046993.9,N
1509080775.8,286046994.5,N
1509080795.6,286046994.4,N
1509080815.4,286046992.1,N
1509080835.3,286046994.2,N
1509080855.1,286046992.9,N
1509080856.0,286046992.9,N
1509080875.8,286046990.1,N
1509080895.7,286046988.5,Y
1509080915.5,286046996.1,P
1509080935.3,286046996.4,P
1509080955.2,286046993.0,P
1509080975.0,286046992.4,Y
1509080975.9,286046992.4,P
1509080995.8,286046997.8,N
1509081015.6,286046997.9,N
1509081035.4,286046997.0,N
1509081055.3,286046996.9,N
1509081075.1,286046997.8,N
1509081076.0,286046997.8,N
1509081095.8,286046999.6,N
1509081115.7,286046999.0,N
1509081135.5,286046996.7,N
1509081155.3,286046998.0,N
1509081175.2,286046994.9,N
1509081195.9,286046997.9,N
1509081215.7,286046998.0,N
1509081235.6,286046997.8,N
1509081255.4,286046995.6,N
1509081275.2,286046996.0,N
1509081295.1,286046992.0,Y
1509081296.0,286046992.0,P
1509081315.8,286046996.0,N
1509081335.6,286046996.0,N
1509081355.5,286046996.4,N
1509081375.3,286046996.1,N
1509081395.1,286046991.9,Y
1509081415.9,286047004.4,P
1509081435.7,286047007.4,N
1509081455.6,286047010.9,N
1509081475.4,286047017.0,N
1509081495.2,286047016.1,N
1509081515.1,286047023.1,Y
1509081516.0,286047023.1,P
1509081535.8,286047014.3,N
1509081555.6,286047015.9,N
1509081575.5,286047020.9,Y
1509081595.3,286047006.1,P
1509081615.1,286047009.6,N
1509081635.9,286047015.5,P
1509081655.7,286047011.4,N
1509081675.5,286047010.4,N
1509081695.4,286047009.2,N
1509081715.2,286047010.8,Y
1509081735.1,286046998.5,P
1509081736.0,286046998.5,N
1509081755.8,286046996.8,N
1509081775.6,286046996.7,N
1509081795.5,286046997.1,N
1509081815.3,286046999.5,N
1509081835.1,286047001.0,N
1509081855.9,286047000.8,N
1509081875.7,286046999.2,N
1509081895.5,286046995.1,N
1509081915.4,286046996.5,N
1509081935.2,286046998.7,N
1509081955.0,286047000.6,N
1509081955.9,286047000.6,N
1509081975.8,286047002.7,N
1509081995.6,286046996.7,N
1509082015.4,286046996.9,N
1509082035.3,286046993.8,N
1509082055.1,286046993.8,N
1509082056.0,286046993.8,N
1509082075.8,286046995.9,N
1509082095.7,286046994.4,N
1509082115.5,286046993.4,N
1509082135.3,286046996.9,N
1509082155.2,286046997.6,N
1509082175.0,286046997.4,N
1509082175.9,286046997.4,N
1509082195.7,286046999.4,N
1509082215.6,286046996.6,N
1509082235.4,286046999.6,N
1509082255.2,286046998.4,N
1509082275.1,286047000.0,N
1509082276.0,286047000.0,N
1509082295.8,286046997.1,N
1509082315.6,286046999.2,N
1509082335.5,286046995.6,N
1509082355.3,286046992.6,Y
1509082375.2,286046993.2,P
1509082395.9,286046989.0,P
1509082415.7,286046988.2,P
1509082435.6,286046988.2,Y
1509082455.4,286046994.9,P
1509082475.2,286046995.1,P
1509082495.1,286046996.5,N
1509082496.0,286046996.5,N
1509082515.8,286046994.2,Y
1509082535.7,286046998.1,P
1509082555.5,286047000.9,N
1509082575.3,286046995.3,N
1509082595.2,286046995.8,N
1509082615.9,286046997.9,N
1509082635.7,286046992.4,Y
1509082655.6,286046992.3,P
1509082675.4,286046992.3,P
1509082695.2,286046991.5,P
1509082715.1,286046989.2,Y
1509082716.0,286046989.2,P
1509082735.8,286046995.8,N
1509082755.6,286046994.9,N
1509082775.5,286046995.9,N
1509082795.3,286046999.5,N
1509082815.1,286046996.2,N
1509082835.9,286046990.7,Y
1509082855.7,286046997.6,P
1509082875.6,286047000.1,N
1509082895.4,286047002.1,N
1509082915.2,286047001.7,N
1509082935.1,286047004.1,N
1509082936.0,286047004.1,N
1509082955.8,286047002.5,N
1509082975.6,286046999.8,N
1509082995.5,286047002.7,N
1509083015.3,286047000.1,N
1509083035.1,286047004.2,N
1509083055.9,286047002.2,N
1509083075.7,286047003.2,N
1509083095.5,286047005.8,N
1509083115.4,286047004.8,N
1509083135.2,286047005.6,N
1509083155.0,286047005.0,N
1509083156.0,286047005.0,N
1509083175.8,286047001.3,N
1509083195.6,286047002.0,N
1509083215.5,286047003.2,N
1509083235.3,286047004.6,N
1509083255.1,286047005.1,N
1509083275.9,286047004.1,N
1509083295.7,286047005.2,N
1509083315.5,286047000.3,N
1509083335.4,286047003.5,N
1509083355.2,286047009.7,Y
1509083375.0,286047013.0,P
1509083375.9,286047013.0,N
1509083395.8,286047016.6,P
1509083415.6,286047015.7,Y
1509083435.4,286047008.4,P
1509083455.3,286047007.8,P
1509083475.1,286047012.1,P
1509083495.9,286047011.5,Y
1509083515.7,286047001.4,P
1509083535.5,286047004.8,N
1509083555.4,286047007.4,N
1509083575.2,286047008.1,N
1509083595.0,286047012.4,Y
1509083595.9,286047012.4,P
1509083615.8,286047002.9,N
1509083635.6,286047003.0,N
1509083655.4,286047005.2,N
1509083675.3,286047005.5,N
1509083695.1,286047003.0,N
1509083715.8,286047007.2,N
1509083735.7,286047004.7,N
1509083755.5,286047006.9,N
1509083775.3,286047007.3,N
1509083795.2,286047010.0,Y
1509083815.0,286047001.3,P
1509083815.9,286047001.3,N
1509083835.8,286047001.8,N
1509083855.6,286047000.3,N
1509083875.4,286047000.4,N
1509083895.3,286047000.8,N
1509083915.1,286046998.4,N
1509083916.0,286046998.4,N
1509083935.8,286046999.4,N
1509083955.7,286047001.0,N
1509083975.5,286046996.7,N
1509083995.3,286046999.4,N
